Radiation Dose at Monitoring Post of Fukushima Daini Nuclear Power Station
Date,Time,MP-1(microSv/h),MP-2(microSv/h),MP-3(microSv/h),MP-4(microSv/h),MP-5(microSv/h),MP-6(microSv/h),MP-7(microSv/h),Wind Direction,Wind Velocity(m/s),Rain
2020/06/30,00:00,0.170,0.154,0.253,0.241,0.242,0.132,0.082,south,4.6,No
2020/06/30,00:10,0.169,0.155,0.251,0.241,0.243,0.134,0.081,south,5.4,No
2020/06/30,00:20,0.168,0.155,0.254,0.241,0.244,0.132,0.081,south,4.6,No
2020/06/30,00:30,0.170,0.156,0.251,0.241,0.242,0.133,0.082,south,4.5,No
2020/06/30,00:40,0.168,0.155,0.254,0.242,0.245,0.133,0.082,south,4.2,No
2020/06/30,00:50,0.171,0.156,0.252,0.242,0.244,0.132,0.081,south,3.8,No
2020/06/30,01:00,0.170,0.156,0.252,0.240,0.243,0.135,0.082,south,3.2,No
2020/06/30,01:10,0.169,0.156,0.254,0.241,0.244,0.134,0.082,south,3.1,No
2020/06/30,01:20,0.171,0.156,0.252,0.240,0.242,0.134,0.081,south,3.7,No
2020/06/30,01:30,0.170,0.156,0.255,0.243,0.245,0.133,0.082,south,2.6,No
2020/06/30,01:40,0.169,0.156,0.253,0.242,0.246,0.132,0.082,south,2.6,No
2020/06/30,01:50,0.169,0.155,0.253,0.242,0.242,0.135,0.082,south,3.3,No
2020/06/30,02:00,0.169,0.156,0.253,0.243,0.246,0.134,0.082,south,4.2,No
2020/06/30,02:10,0.170,0.154,0.251,0.240,0.244,0.133,0.081,south-southeast,3.7,No
2020/06/30,02:20,0.170,0.155,0.256,0.242,0.244,0.134,0.082,south,3.6,No
2020/06/30,02:30,0.170,0.156,0.252,0.242,0.246,0.134,0.082,south,2.8,No
2020/06/30,02:40,0.170,0.155,0.255,0.243,0.243,0.133,0.082,south-southeast,2.5,No
2020/06/30,02:50,0.169,0.156,0.253,0.241,0.244,0.133,0.083,south-southeast,2.6,No
2020/06/30,03:00,0.169,0.155,0.252,0.241,0.244,0.133,0.082,south-southeast,3.3,No
2020/06/30,03:10,0.170,0.156,0.254,0.242,0.244,0.134,0.082,south-southeast,2.7,No
2020/06/30,03:20,0.170,0.157,0.253,0.240,0.247,0.134,0.082,south-southeast,3.0,No
2020/06/30,03:30,0.171,0.156,0.255,0.244,0.244,0.134,0.082,south-southeast,3.0,No
2020/06/30,03:40,0.170,0.156,0.253,0.243,0.245,0.134,0.082,south-southeast,3.0,No
2020/06/30,03:50,0.171,0.156,0.254,0.242,0.245,0.134,0.082,south-southeast,3.2,No
2020/06/30,04:00,0.171,0.157,0.254,0.243,0.244,0.134,0.083,south-southeast,2.2,No
2020/06/30,04:10,0.170,0.156,0.253,0.241,0.247,0.134,0.082,south,2.9,No
2020/06/30,04:20,0.172,0.157,0.255,0.243,0.244,0.134,0.082,south,2.6,No
2020/06/30,04:30,0.171,0.157,0.253,0.241,0.245,0.135,0.083,south-southwest,1.8,No
2020/06/30,04:40,0.171,0.156,0.255,0.243,0.246,0.134,0.082,south,1.5,No
2020/06/30,04:50,0.172,0.157,0.254,0.243,0.243,0.133,0.083,south,1.3,No
2020/06/30,05:00,0.171,0.158,0.254,0.242,0.247,0.135,0.082,southeast,0.7,No
2020/06/30,05:10,0.172,0.157,0.254,0.244,0.244,0.134,0.083,-,CALM,No
2020/06/30,05:20,0.170,0.155,0.254,0.242,0.246,0.134,0.083,-,CALM,No
2020/06/30,05:30,0.171,0.158,0.255,0.244,0.246,0.135,0.082,-,CALM,No
2020/06/30,05:40,0.171,0.157,0.254,0.242,0.244,0.134,0.084,south-southeast,0.6,No
2020/06/30,05:50,0.170,0.157,0.255,0.244,0.247,0.136,0.083,south-southeast,1.4,No
2020/06/30,06:00,0.172,0.157,0.254,0.244,0.244,0.134,0.084,southeast,1.2,No
2020/06/30,06:10,0.171,0.156,0.254,0.241,0.244,0.134,0.084,south-southeast,1.1,No
2020/06/30,06:20,0.170,0.158,0.256,0.244,0.247,0.135,0.082,south,0.8,No
2020/06/30,06:30,0.172,0.156,0.253,0.243,0.244,0.134,0.084,southeast,0.7,No
2020/06/30,06:40,0.169,0.156,0.255,0.243,0.246,0.135,0.083,south-southeast,0.7,No
2020/06/30,06:50,0.171,0.156,0.255,0.244,0.248,0.136,0.083,-,CALM,No
2020/06/30,07:00,0.172,0.157,0.252,0.242,0.244,0.134,0.084,south,0.6,No
2020/06/30,07:10,0.170,0.157,0.255,0.242,0.244,0.135,0.083,south,1.4,No
2020/06/30,07:20,0.172,0.156,0.254,0.243,0.248,0.135,0.083,south,2.0,No
2020/06/30,07:30,0.171,0.156,0.251,0.240,0.244,0.134,0.082,south,3.3,No
2020/06/30,07:40,0.169,0.157,0.254,0.244,0.245,0.133,0.083,south,3.4,No
2020/06/30,07:50,0.171,0.156,0.252,0.243,0.245,0.135,0.083,south-southeast,2.3,No
2020/06/30,08:00,0.170,0.156,0.252,0.240,0.243,0.134,0.083,south,2.9,No
2020/06/30,08:10,0.170,0.157,0.254,0.242,0.243,0.133,0.083,south-southeast,2.4,No
2020/06/30,08:20,0.172,0.156,0.252,0.243,0.245,0.135,0.083,southeast,3.0,No
2020/06/30,08:30,0.170,0.156,0.251,0.240,0.244,0.134,0.082,southeast,3.9,No
2020/06/30,08:40,0.169,0.156,0.254,0.241,0.242,0.134,0.082,south-southeast,3.8,No
2020/06/30,08:50,0.171,0.155,0.253,0.242,0.245,0.134,0.082,south-southeast,4.4,No
2020/06/30,09:00,0.169,0.154,0.250,0.240,0.244,0.133,0.082,south-southeast,5.2,No
2020/06/30,09:10,0.169,0.156,0.251,0.240,0.241,0.133,0.082,south-southeast,4.6,No
2020/06/30,09:20,0.170,0.155,0.253,0.243,0.243,0.134,0.081,south-southeast,5.0,No
2020/06/30,09:30,0.169,0.153,0.252,0.241,0.245,0.133,0.082,south-southeast,5.3,No
2020/06/30,09:40,0.169,0.156,0.251,0.238,0.243,0.133,0.082,south,6.5,No
2020/06/30,09:50,0.171,0.155,0.253,0.242,0.241,0.133,0.082,south-southeast,5.9,No
2020/06/30,10:00,0.170,0.154,0.253,0.241,0.242,0.134,0.082,south,6.9,No
2020/06/30,10:10,0.169,0.154,0.251,0.241,0.245,0.133,0.082,south,7.0,No
2020/06/30,10:20,0.167,0.157,0.250,0.239,0.246,0.132,0.082,south,5.1,No
2020/06/30,10:30,0.171,0.155,0.250,0.238,0.243,0.134,0.081,south,5.4,No
2020/06/30,10:40,0.171,0.155,0.251,0.243,0.242,0.134,0.081,south,5.2,No
2020/06/30,10:50,0.170,0.154,0.254,0.241,0.242,0.133,0.082,south,5.4,No
2020/06/30,11:00,0.168,0.154,0.253,0.241,0.243,0.133,0.082,south,6.5,No
2020/06/30,11:10,0.169,0.157,0.253,0.239,0.245,0.133,0.081,south,6.5,No
2020/06/30,11:20,0.171,0.156,0.251,0.239,0.245,0.134,0.082,south-southeast,6.7,No
2020/06/30,11:30,0.171,0.156,0.250,0.244,0.243,0.133,0.082,south-southeast,7.4,No
2020/06/30,11:40,0.168,0.155,0.251,0.242,0.243,0.134,0.082,south-southeast,8.2,No
2020/06/30,11:50,0.168,0.154,0.253,0.241,0.242,0.133,0.081,south-southeast,7.8,No
2020/06/30,12:00,0.168,0.155,0.254,0.240,0.241,0.134,0.082,south-southeast,8.2,No
2020/06/30,12:10,0.170,0.156,0.252,0.238,0.246,0.134,0.081,south-southeast,8.7,No
2020/06/30,12:20,0.170,0.156,0.252,0.243,0.244,0.133,0.082,south-southeast,8.7,No
2020/06/30,12:30,0.169,0.155,0.250,0.243,0.243,0.134,0.081,south-southeast,8.1,No
2020/06/30,12:40,0.169,0.155,0.254,0.242,0.244,0.134,0.081,south-southeast,7.5,No
2020/06/30,12:50,0.172,0.156,0.254,0.241,0.246,0.134,0.082,south-southeast,5.7,Yes
2020/06/30,13:00,0.169,0.155,0.251,0.244,0.244,0.133,0.082,south-southeast,5.9,No
2020/06/30,13:10,0.169,0.156,0.252,0.243,0.242,0.134,0.081,south,7.3,No
2020/06/30,13:20,0.171,0.157,0.255,0.240,0.243,0.133,0.082,south,7.1,Yes
2020/06/30,13:30,0.170,0.156,0.253,0.243,0.245,0.133,0.082,south,6.7,Yes
2020/06/30,13:40,0.169,0.155,0.253,0.243,0.245,0.134,0.082,south,8.1,Yes
2020/06/30,13:50,0.170,0.156,0.254,0.241,0.243,0.135,0.083,south-southeast,8.1,No
2020/06/30,14:00,0.172,0.156,0.255,0.243,0.247,0.134,0.083,south,6.3,Yes
2020/06/30,14:10,0.171,0.156,0.254,0.244,0.247,0.134,0.082,south,6.4,Yes
2020/06/30,14:20,0.170,0.155,0.252,0.241,0.243,0.136,0.084,south,8.9,Yes
2020/06/30,14:30,0.172,0.158,0.253,0.241,0.246,0.137,0.085,south,8.5,Yes
2020/06/30,14:40,0.171,0.157,0.249,0.243,0.246,0.136,0.085,south,8.1,Yes
2020/06/30,14:50,0.171,0.156,0.252,0.241,0.244,0.137,0.086,south,9.2,Yes
2020/06/30,15:00,0.172,0.158,0.252,0.240,0.244,0.137,0.086,south,9.3,Yes
2020/06/30,15:10,0.171,0.157,0.250,0.241,0.246,0.136,0.085,south,8.5,Yes
2020/06/30,15:20,0.171,0.157,0.250,0.240,0.243,0.136,0.085,south,8.1,No
2020/06/30,15:30,0.171,0.157,0.251,0.240,0.244,0.135,0.085,south,9.2,No
2020/06/30,15:40,0.169,0.155,0.248,0.240,0.245,0.134,0.084,south,8.8,No
2020/06/30,15:50,0.168,0.156,0.249,0.239,0.241,0.134,0.084,south,8.2,Yes
2020/06/30,16:00,0.170,0.155,0.249,0.238,0.242,0.134,0.083,south,7.3,No
2020/06/30,16:10,0.169,0.154,0.248,0.240,0.244,0.134,0.083,south,9.6,Yes
2020/06/30,16:20,0.169,0.155,0.249,0.239,0.242,0.135,0.083,south,10.4,Yes
2020/06/30,16:30,0.169,0.156,0.249,0.238,0.241,0.134,0.084,south,11.1,Yes
2020/06/30,16:40,0.168,0.155,0.247,0.241,0.244,0.134,0.083,south,12.6,Yes
2020/06/30,16:50,0.170,0.155,0.250,0.237,0.243,0.135,0.084,south,10.7,Yes
2020/06/30,17:00,0.170,0.156,0.248,0.237,0.242,0.134,0.084,south,9.2,Yes
2020/06/30,17:10,0.167,0.154,0.246,0.239,0.244,0.134,0.084,south,10.7,Yes
2020/06/30,17:20,0.169,0.156,0.247,0.236,0.241,0.134,0.084,south,6.3,Yes
2020/06/30,17:30,0.169,0.155,0.246,0.238,0.243,0.134,0.083,south,6.6,Yes
2020/06/30,17:40,0.168,0.155,0.246,0.237,0.243,0.134,0.084,south-southwest,6.8,Yes
2020/06/30,17:50,0.169,0.156,0.247,0.234,0.240,0.135,0.084,south,7.7,Yes
2020/06/30,18:00,0.169,0.154,0.243,0.235,0.242,0.134,0.084,south,7.6,Yes
2020/06/30,18:10,0.167,0.155,0.243,0.233,0.241,0.133,0.085,south,10.0,Yes
2020/06/30,18:20,0.169,0.155,0.245,0.234,0.241,0.133,0.085,south,8.6,Yes
2020/06/30,18:30,0.168,0.153,0.244,0.235,0.243,0.134,0.085,south,7.7,Yes
2020/06/30,18:40,0.168,0.156,0.245,0.233,0.241,0.133,0.085,south,6.5,Yes
2020/06/30,18:50,0.169,0.153,0.244,0.234,0.240,0.133,0.083,south-southwest,7.3,Yes
2020/06/30,19:00,0.166,0.154,0.243,0.235,0.244,0.132,0.083,south,10.4,No
2020/06/30,19:10,0.165,0.154,0.245,0.232,0.240,0.132,0.083,south-southwest,11.5,Yes
2020/06/30,19:20,0.166,0.152,0.243,0.235,0.239,0.132,0.082,south,9.2,Yes
2020/06/30,19:30,0.165,0.152,0.241,0.234,0.242,0.131,0.081,south,10.3,Yes
2020/06/30,19:40,0.165,0.153,0.247,0.232,0.240,0.130,0.082,south,11.2,Yes
2020/06/30,19:50,0.166,0.152,0.243,0.235,0.239,0.131,0.080,south-southwest,10.7,No
2020/06/30,20:00,0.165,0.152,0.243,0.233,0.240,0.131,0.081,south-southwest,8.6,No
2020/06/30,20:10,0.165,0.152,0.245,0.232,0.240,0.130,0.081,south-southwest,9.3,Yes
2020/06/30,20:20,0.165,0.150,0.243,0.234,0.239,0.131,0.080,south-southwest,9.2,Yes
2020/06/30,20:30,0.164,0.152,0.244,0.232,0.242,0.131,0.082,south,9.6,Yes
2020/06/30,20:40,0.164,0.152,0.244,0.233,0.238,0.129,0.081,south-southwest,9.8,No
2020/06/30,20:50,0.165,0.152,0.242,0.234,0.239,0.131,0.080,south-southwest,9.0,No
2020/06/30,21:00,0.163,0.152,0.244,0.233,0.241,0.131,0.080,south,8.1,Yes
2020/06/30,21:10,0.164,0.151,0.244,0.231,0.238,0.129,0.080,south,7.9,No
2020/06/30,21:20,0.165,0.151,0.242,0.234,0.237,0.130,0.080,south,8.1,No
2020/06/30,21:30,0.164,0.152,0.243,0.233,0.241,0.130,0.081,south,8.2,Yes
2020/06/30,21:40,0.164,0.152,0.244,0.232,0.240,0.129,0.080,south,8.8,Yes
2020/06/30,21:50,0.166,0.151,0.241,0.234,0.237,0.130,0.080,south,8.5,No
2020/06/30,22:00,0.163,0.152,0.244,0.233,0.241,0.131,0.081,south,7.5,Yes
2020/06/30,22:10,0.166,0.152,0.245,0.234,0.241,0.131,0.081,south,6.8,Yes
2020/06/30,22:20,0.167,0.151,0.244,0.236,0.238,0.131,0.080,south,8.7,No
2020/06/30,22:30,0.165,0.153,0.245,0.232,0.241,0.131,0.081,south,7.3,No
2020/06/30,22:40,0.166,0.152,0.245,0.233,0.240,0.130,0.080,south,7.8,Yes
2020/06/30,22:50,0.165,0.152,0.243,0.237,0.238,0.130,0.081,south,7.6,Yes
2020/06/30,23:00,0.165,0.154,0.245,0.234,0.242,0.132,0.081,south,8.5,Yes
2020/06/30,23:10,0.167,0.153,0.246,0.236,0.242,0.133,0.083,south,7.5,Yes
2020/06/30,23:20,0.165,0.154,0.244,0.237,0.240,0.132,0.083,south,7.3,Yes
2020/06/30,23:30,0.167,0.154,0.246,0.235,0.243,0.132,0.082,south,9.0,No
2020/06/30,23:40,0.166,0.153,0.246,0.236,0.241,0.132,0.081,south,9.2,Yes
2020/06/30,23:50,0.165,0.154,0.245,0.237,0.239,0.132,0.082,south-southwest,9.3,Yes
